Weather in Cordova

United States     35°09′20″N   89°46′34″W
temp.,
°C
wind,
m/s
gust,
m/s
humid.,
%
clouds,
%
prec.,
mm/h
press.,
hPa
HPBL,
m
23 may, mon
mon2301:00+15ne41173100 0.0 1021409
04:00+14nne5978100 0.0 1020343
07:00+14nne41077100 0.0 1020357
10:00+16ne5879100 0.0 1020403
13:00+20nne4575100 0.0 1019707
16:00+22ne5573100 0.0 1018951
19:00+20ne4781100 0.0 1018515
22:00+18ne488393 0.0 1019337
24 may, tue
tue2401:00+14ene489087 0.0 1017221
04:00+15ene378871 0.0 1016209
07:00+16ene359230 0.0 1017165
10:00+22e467537 0.0 1016639
13:00+26ese476582 0.1 10141423
16:00+26sse697797 2.9 10121061
19:00+24se5118499 3.7 1011747
22:00+22sse7168622 0.4 1011569
25 may, wed
wed2501:00+21s51494100 3.1 1012523
04:00+21sse51495100 4.8 1011552
07:00+21sse6169580 4.9 1012701
10:00+25s8148229 0.4 10131174
13:00+21ssw3591100 7.7 1014258
16:00+20s3596100 3.8 1013253
19:00+20sse51197100 30.1 1012550
22:00+19s51696100 6.7 1013685
26 may, thu
thu2601:00+18se3997100 8.9 1013444
04:00+18s4996100 0.1 1012562
07:00+18se3997100 0.8 1012516
10:00+19sse51197100 14.7 1011787
13:00+22s6985100 16.9 10091065
16:00+22s698799 1.8 1007891
19:00+20sw479042 4.4 1007561
22:00+16ssw410923 3.9 1008306
27 may, fri
fri2701:00+15ssw410945 3.9 1008375
04:00+14sw499492 0.0 1008419
07:00+15sw4895100 0.0 1009396
10:00+17wsw5991100 0.3 1009665
13:00+17wsw51091100 0.6 1010815
16:00+20wnw5984100 0.8 1009874
19:00+18nw489019 1.5 1010490
22:00+15n11955 0.0 101111